星链-30318 (STARLINK-30318 )

导读 | 星芒AI

STARLINK-30318 是 SpaceX 星链计划中的一颗低轨通信卫星,属于第 30 批发射的星链卫星群。该卫星于 2023 年发射,运行在约 550 公里的轨道高度,旨在为全球用户提供高速互联网服务。作为星链星座的一部分,STARLINK-30318 采用先进推进系统和激光通信技术,提升网络稳定性和数据传输效率。该卫星的部署有助于扩大星链在偏远地区的覆盖范围,支持应急通信和商业应用。

基本信息
目录编号:
57711
目录名称:
STARLINK-30318
国际标识:
2023-129P
轨道中心:
EARTH
卫星名称:
星链-30318
卫星全名:
星链-30318 (STARLINK-30318 )
卫星状态:
在轨 (已飞行795 天)
发射日期:
2023-08-27 UTC
国别 :
美国 (US)
星等 :
--
轨道信息
数据来源 国际轨道数据
星历时间: 2025-10-30T01:51:25+0800
1天前
查看轨道信息
半长轴: 6937.223km
偏心率: 0.0001449
轨道倾角: 43.005°
近地点辐角 265.187°
升交点赤经 112.072°
平近点角 94.881°
近地点: 558.082km
远地点: 560.094km
周期: 95.838分钟
每日圈数: 15.025342
详细信息
固有亮度:
5
最大亮度:
0.3
卫星平台:
Starlink v2.0 mini
覆盖范围:
全球
运营商:
太空探索技术公司
运营商所在国:
美国
制造商(研发单位):
太空探索技术公司
制造商所在国:
美国
使用方式:
暂无
卫星简介
星链(Starlink)计划是由太空探索技术公司(SpaceX)提出的一个巨型低轨卫星互联网星座项目,计划在2019年至2024年间在太空搭建由约1.2万颗卫星组成的“星链”网络,其中1584颗将部署在地球上空550千米处的近地轨道,并从2020年开始工作。该卫星仍在工作。
2D轨道图
3D轨道图
轨道高度分析图
轨道倾角分析图
轨道综合分析图
查看轨道综合分析图